Location: Karcze
(52.0945°N, 22.4786°E)
Time: 00:25:31
(UTC+00:00)

A-11 Canister half - Pass Details

Date: 07 August 2021
Orbit: 1515 x 1685 km, 47.2° (Epoch: 19 September)

Event Time Altitude Azimuth Distance (km) Brightness Sun altitude
Rises 12:32:56 0° 198° (SSW) 4,719 12.2 47.3°
Reaches altitude 10° 12:36:37 10° 186° (S) 3,764 11.7 47.0°
Maximum altitude 12:43:59 26° 135° (SE) 2,771 10.6 46.1°
Drops below altitude 10° 12:51:33 10° 84° (E) 3,882 10.9 45.3°
Sets 12:55:23 0° 73° (ENE) 4,895 11.2 44.8°
